Home > Weather > Zittau > Past weeks

Flag for Germany Weather for the Past 2 Weeks in Zittau, Saxony, Germany

Now
35 °F

Overcast.


Feels Like: 35 °F
Forecast: 32 / 40 °F
Wind: 2 mph from Northwest

Location: Liberec

Current Time: Feb 10, 2016 at 8:51:04 AM

Latest Report: Feb 10, 2016 at 8:00 AM


Visibility: 25 mi

Pressure: 29.35 "Hg

Humidity: 79%

Dew point: 29 °F

Location of ZittauLocation

Historic Weather in Zittau — Graph

°F

Zittau Temperature Yesterday

Maximum temperature yesterday: 47 °F (at 7:00 PM)
Minimum temperature yesterday: 40 °F (at 5:00 AM)
Average temperature yesterday: 44 °F

High & Low Weather Summary for the Past Weeks

 TemperatureHumidityPressure
High51 °F (Feb 2, 1:00 PM)99% (Jan 26, 7:00 AM)30.37 "Hg (Jan 26, 7:00 AM)
Low31 °F (Feb 5, 8:00 AM)51% (Feb 8, 3:00 PM)29.18 "Hg (Feb 9, 10:00 PM)
Average40 °F77%29.99 "Hg
* Reported Jan 26 7:00 AM — Feb 10 7:00 AM, Zittau, Weather by CustomWeather, © 2016

Note: Actual official high and low records may vary slightly from our data, if they occured in-between our weather recording intervals... More about our weather records

Advertising

Zittau Weather History for the Previous 24 Hours

 ConditionsComfort  
Time TempWeatherWind HumidityBarometerVisibility
7:00 AM
Wed, Feb 10
35 °FOvercast.No wind78%29.32 "Hg19 mi
6:00 AM37 °FChilly.5 mph73%29.29 "Hg12 mi
5:00 AM38 °FChilly.2 mph77%29.29 "Hg12 mi
4:00 AM39 °FChilly.5 mph74%29.26 "Hg12 mi
3:00 AM41 °FLots of rain. Overcast.6 mph79%29.26 "Hg4 mi
1:00 AM46 °FCool.7 mph78%29.21 "Hg12 mi
12:00 AM46 °FLots of rain. Overcast.6 mph79%29.18 "Hg5 mi
10:00 PM
Tue, Feb 9
46 °FLight rain. Overcast.5 mph77%29.18 "Hg12 mi
9:00 PM47 °FOvercast.7 mph71%29.21 "Hg12 mi
8:00 PM46 °FLight rain. Overcast.8 mph72%29.23 "Hg12 mi
7:00 PM47 °FOvercast.7 mph72%29.26 "Hg12 mi
6:00 PM46 °FLight rain. Overcast.7 mph73%29.29 "Hg12 mi
5:00 PM46 °FLight rain. Cloudy.7 mph76%29.32 "Hg12 mi
4:00 PM45 °FLight rain. Overcast.7 mph80%29.35 "Hg12 mi
3:00 PM44 °FLight rain. Overcast.6 mph81%29.44 "Hg7 mi
2:00 PM44 °FLight rain. Overcast.8 mph73%29.50 "Hg11 mi
1:00 PM45 °FOvercast.7 mph64%29.54 "Hg25 mi
12:00 PM46 °FOvercast.8 mph58%29.57 "Hg25 mi
8:00 AM41 °FScattered clouds.7 mph74%29.65 "Hg22 mi
Weather by CustomWeather, © 2016

See weather overviewHow to use our weather pages